Location: Mountain Lakes
(44.1215°N, 71.9554°W)
Time: 16:13:31
(UTC+00:00)

Okean O Rocket - Pass Details

Date: 08 September 2024
Orbit: 616 x 639 km, 98.1° (Epoch: 12 October)

Event Time Altitude Azimuth Distance (km) Brightness Sun altitude
Exits shadow 23:46:16 - 110° (ESE) 2,129 3.6 -7.2°
Reaches altitude 10° 23:46:37 10° 106° (ESE) 2,032 3.5 -7.2°
Maximum altitude 23:49:38 18° 63° (ENE) 1,557 3.2 -7.8°
Drops below altitude 10° 23:52:40 10° 20° (NNE) 2,041 4.2 -8.3°
Sets 23:55:25 0° 2° (N) 2,954 5.2 -8.8°
